Location: Peterborough
(44.3091°N, 78.3197°W)
Time: 15:58:27
(UTC-04:00)

Transit 4A - Pass Details

Date: 22 March 2023
Orbit: 864 x 980 km, 66.8° (Epoch: 04 June)

Event Time Altitude Azimuth Distance (km) Brightness Sun altitude
Rises 10:07:21 0° 258° (WSW) 3,445 10.5 29.0°
Reaches altitude 10° 10:10:28 10° 275° (W) 2,520 9.8 29.5°
Maximum altitude 10:14:45 21° 323° (NW) 1,889 9.2 30.1°
Drops below altitude 10° 10:19:08 10° 11° (N) 2,570 10.1 30.8°
Sets 10:22:22 0° 27° (NNE) 3,534 10.9 31.3°
